�N����,����,�~����,�C��,���x,�C��,����,���ϕ���,�ő�u�ԕ���,�ő厞����,���˗�,�I�_���x,�n�����x,�ő啗���N��,DTYPE
"22/02/28","00:10",0.0,2.8,83.9,1015.9,305.2,3.0,5.9,305.8,0.00,0.4,6.4,"00:09:44",1
"22/02/28","00:20",0.0,2.8,83.0,1015.6,323.7,3.1,4.5,328.7,0.00,0.2,6.4,"00:17:04",1
"22/02/28","00:30",0.0,2.6,82.3,1016.1,287.0,1.7,3.3,323.6,0.00,-0.1,6.5,"00:20:40",1
"22/02/28","00:40",0.0,2.1,82.0,1016.6,340.5,0.7,1.1,310.3,0.00,-0.6,6.4,"00:34:24",1
"22/02/28","00:50",0.0,1.9,82.0,1016.6,293.5,1.5,2.0,271.7,0.00,-0.8,6.5,"00:46:16",1
"22/02/28","01:00",0.0,1.6,82.3,1016.4,323.8,2.2,3.7,320.2,0.00,-1.0,6.2,"00:57:36",1
"22/02/28","01:10",0.0,1.0,82.8,1016.6,308.9,1.7,3.1,319.9,0.00,-1.6,6.2,"01:03:04",1
"22/02/28","01:20",0.0,0.7,83.4,1016.6,304.4,1.3,2.0,315.8,0.00,-1.7,6.1,"01:14:40",1
"22/02/28","01:30",0.0,1.0,84.1,1016.4,281.8,1.8,2.6,314.3,0.00,-1.3,6.1,"01:21:20",1
"22/02/28","01:40",0.0,0.9,84.9,1016.6,283.0,1.8,2.6,304.0,0.00,-1.3,6.0,"01:35:12",1
"22/02/28","01:50",0.0,1.0,85.5,1016.8,292.1,2.0,2.8,303.7,0.00,-1.1,6.0,"01:49:20",1
"22/02/28","02:00",0.0,1.0,86.0,1016.6,281.8,2.0,2.6,283.0,0.00,-1.0,6.0,"01:50:16",1
"22/02/28","02:10",0.0,1.1,86.3,1016.6,297.2,2.1,3.7,285.4,0.00,-0.9,5.9,"02:02:40",1
"22/02/28","02:20",0.0,1.1,86.6,1016.6,308.9,2.1,3.7,298.6,0.00,-0.8,6.1,"02:13:12",1
"22/02/28","02:30",0.0,0.7,86.8,1016.6,303.3,1.3,3.3,322.9,0.00,-1.2,6.0,"02:29:20",1
"22/02/28","02:40",0.0,0.7,87.0,1016.6,315.9,1.5,2.5,329.7,0.00,-1.2,5.9,"02:30:24",1
"22/02/28","02:50",0.0,0.3,87.3,1016.6,263.6,0.3,0.8,246.6,0.00,-1.5,5.8,"02:45:12",1
"22/02/28","03:00",0.0,0.1,87.6,1016.6,310.9,1.0,2.0,349.0,0.00,-1.7,5.8,"02:56:00",1
"22/02/28","03:10",0.0,-0.3,87.8,1016.4,333.6,1.8,3.1,339.1,0.00,-2.0,5.8,"03:04:24",1
"22/02/28","03:20",0.0,-0.7,88.2,1016.1,299.2,0.8,1.6,322.7,0.00,-2.4,5.6,"03:12:40",1
"22/02/28","03:30",0.0,-0.7,88.5,1016.6,270.3,0.6,1.6,288.8,0.00,-2.3,5.6,"03:29:28",1
"22/02/28","03:40",0.0,-0.7,88.9,1015.9,318.6,1.7,2.8,337.9,0.00,-2.3,5.6,"03:37:04",1
"22/02/28","03:50",0.0,-1.0,89.3,1016.1,338.1,1.6,3.1,340.1,0.00,-2.5,5.6,"03:42:08",1
"22/02/28","04:00",0.0,-1.1,89.6,1015.6,292.2,0.7,1.6,265.6,0.00,-2.5,5.5,"03:56:00",1
"22/02/28","04:10",0.0,-1.3,90.0,1015.9,314.4,1.6,1.9,322.9,0.00,-2.7,5.7,"04:02:00",1
"22/02/28","04:20",0.0,-0.8,90.5,1015.9,302.6,1.8,2.1,319.9,0.00,-2.1,5.5,"04:14:48",1
"22/02/28","04:30",0.0,-0.5,90.6,1015.4,321.0,1.6,2.8,321.2,0.00,-1.8,5.5,"04:21:52",1
"22/02/28","04:40",0.0,-0.2,91.0,1015.9,318.4,2.2,3.1,335.3,0.00,-1.4,5.5,"04:36:00",1
"22/02/28","04:50",0.0,0.1,91.0,1015.9,312.3,2.2,2.8,326.8,0.00,-1.2,5.5,"04:48:24",1
"22/02/28","05:00",0.0,-0.4,91.1,1016.4,326.3,1.3,2.2,329.5,0.00,-1.6,5.4,"04:52:16",1
"22/02/28","05:10",0.0,-1.2,91.3,1015.9,326.2,1.3,2.5,337.1,0.00,-2.4,5.3,"05:02:08",1
"22/02/28","05:20",0.0,-1.4,91.8,1016.4,315.7,1.3,2.6,326.6,0.00,-2.5,5.5,"05:18:40",1
"22/02/28","05:30",0.0,-1.6,92.2,1016.6,322.4,2.0,3.2,331.1,0.00,-2.7,5.3,"05:29:20",1
"22/02/28","05:40",0.0,-0.4,92.3,1016.8,321.1,2.3,4.1,344.8,0.00,-1.5,5.3,"05:36:32",1
"22/02/28","05:50",0.0,-0.5,92.1,1016.4,333.1,1.2,2.2,330.0,0.00,-1.6,5.3,"05:40:16",1
"22/02/28","06:00",0.0,-1.0,92.2,1016.4,315.8,1.1,2.4,346.9,0.00,-2.1,5.1,"05:50:24",1
"22/02/28","06:10",0.0,-1.6,92.6,1016.8,318.8,1.3,2.2,314.4,0.00,-2.6,5.2,"06:03:20",1
"22/02/28","06:20",0.0,-1.6,93.0,1016.8,324.5,1.8,2.8,329.1,0.00,-2.5,5.0,"06:18:24",1
"22/02/28","06:30",0.0,-1.2,93.0,1016.6,335.7,1.7,2.7,341.2,0.00,-2.1,5.2,"06:27:52",1
"22/02/28","06:40",0.0,-1.5,93.1,1016.8,301.8,1.5,2.6,323.0,0.00,-2.4,5.1,"06:39:20",1
"22/02/28","06:50",0.0,-1.8,93.2,1016.8,320.5,1.8,3.1,313.4,0.00,-2.7,5.0,"06:44:24",1
"22/02/28","07:00",0.0,-2.2,93.6,1016.8,313.3,2.2,3.1,324.8,0.00,-3.1,5.1,"06:59:20",1
"22/02/28","07:10",0.0,-2.1,93.7,1017.1,319.5,2.1,2.9,320.6,0.00,-2.9,5.0,"07:04:48",1
"22/02/28","07:20",0.0,-1.6,94.1,1017.3,317.3,1.7,2.6,314.7,0.00,-2.4,4.8,"07:11:04",1
"22/02/28","07:30",0.0,-0.9,94.1,1017.1,324.7,1.0,1.8,309.9,0.00,-1.7,4.8,"07:26:56",1
"22/02/28","07:40",0.0,-0.2,94.2,1017.3,250.3,0.2,1.7,271.3,0.01,-1.0,5.1,"07:30:02",1
"22/02/28","07:50",0.0,0.4,94.2,1017.8,281.9,1.2,2.1,264.1,0.01,-0.4,5.0,"07:40:40",1
"22/02/28","08:00",0.0,1.1,94.2,1018.5,301.5,1.3,2.4,316.2,0.03,0.3,4.9,"07:51:12",1
"22/02/28","08:10",0.0,1.8,94.1,1018.2,271.0,0.6,1.6,318.5,0.05,1.0,4.9,"08:00:56",1
"22/02/28","08:20",0.0,2.2,93.7,1018.5,252.5,0.3,1.0,125.9,0.08,1.3,4.8,"08:19:50",1
"22/02/28","08:30",0.0,2.5,93.5,1018.7,145.3,0.6,1.3,125.8,0.11,1.6,4.5,"08:27:56",1
"22/02/28","08:40",0.0,3.0,92.9,1019.2,137.6,0.7,1.3,125.6,0.14,2.0,4.8,"08:39:36",1
"22/02/28","08:50",0.0,3.6,91.9,1019.7,128.1,0.8,1.6,120.9,0.16,2.4,4.9,"08:44:58",1
"22/02/28","09:00",0.0,4.5,90.5,1019.7,180.9,0.7,1.6,110.6,0.19,3.1,4.6,"08:51:48",1
"22/02/28","09:10",0.0,5.1,88.0,1020.1,124.5,0.7,1.7,120.1,0.22,3.3,4.8,"09:01:06",1
"22/02/28","09:20",0.0,5.7,84.4,1020.4,286.3,0.8,2.0,332.2,0.25,3.3,4.7,"09:16:34",1
"22/02/28","09:30",0.0,6.0,80.0,1020.6,254.5,1.2,2.2,239.0,0.28,2.9,5.0,"09:23:04",1
"22/02/28","09:40",0.0,6.9,75.8,1020.6,232.2,0.7,2.0,239.2,0.31,3.0,4.8,"09:39:16",1
"22/02/28","09:50",0.0,6.8,72.8,1020.6,134.9,1.5,3.5,113.0,0.33,2.3,4.9,"09:46:24",1
"22/02/28","10:00",0.0,7.1,70.7,1020.4,140.8,1.6,2.7,126.0,0.35,2.2,4.8,"09:58:16",1
"22/02/28","10:10",0.0,7.6,69.9,1020.1,173.8,1.2,2.2,189.4,0.38,2.5,5.0,"10:07:44",1
"22/02/28","10:20",0.0,8.4,67.0,1020.4,213.2,1.1,2.4,158.0,0.40,2.7,5.0,"10:16:32",1
"22/02/28","10:30",0.0,8.9,65.4,1020.4,256.6,1.2,2.1,286.0,0.42,2.8,5.2,"10:22:32",1
"22/02/28","10:40",0.0,9.3,64.1,1020.1,215.7,1.2,2.8,206.5,0.44,2.9,5.3,"10:32:24",1
"22/02/28","10:50",0.0,9.4,62.4,1020.1,185.2,0.8,1.8,148.7,0.45,2.6,5.4,"10:42:00",1
"22/02/28","11:00",0.0,9.5,61.3,1019.9,156.1,1.3,3.1,205.4,0.47,2.5,5.3,"10:58:00",1
"22/02/28","11:10",0.0,9.8,61.4,1020.1,209.7,1.8,4.0,238.3,0.48,2.8,5.5,"11:03:20",1
"22/02/28","11:20",0.0,10.1,60.3,1019.9,141.5,1.5,4.3,109.4,0.49,2.8,5.3,"11:19:12",1
"22/02/28","11:30",0.0,10.8,59.5,1019.7,138.7,1.7,3.5,121.7,0.50,3.3,5.7,"11:22:00",1
"22/02/28","11:40",0.0,11.3,55.7,1019.2,104.8,1.5,3.9,120.1,0.51,2.8,5.6,"11:33:52",1
"22/02/28","11:50",0.0,12.2,49.7,1019.2,129.9,1.5,2.9,55.1,0.53,2.0,5.8,"11:46:00",1
"22/02/28","12:00",0.0,12.5,45.7,1018.7,185.5,2.8,4.8,219.6,0.54,1.2,5.9,"11:54:40",1
"22/02/28","12:10",0.0,13.1,43.3,1018.2,195.3,2.1,4.1,212.6,0.54,0.9,5.8,"12:09:44",1
"22/02/28","12:20",0.0,13.3,41.7,1018.0,163.8,2.3,5.2,130.0,0.55,0.6,5.9,"12:14:56",1
"22/02/28","12:30",0.0,13.3,42.3,1018.0,169.3,3.1,4.8,163.2,0.55,0.8,6.2,"12:23:04",1
"22/02/28","12:40",0.0,13.5,41.0,1017.3,181.3,2.8,4.8,192.3,0.55,0.6,6.4,"12:34:08",1
"22/02/28","12:50",0.0,14.3,42.2,1017.1,163.8,2.5,4.5,184.2,0.55,1.7,6.4,"12:46:00",1
"22/02/28","13:00",0.0,14.6,41.3,1016.8,161.4,2.3,5.0,142.5,0.55,1.6,6.6,"12:50:24",1
"22/02/28","13:10",0.0,14.6,39.1,1016.8,218.4,1.7,3.6,239.1,0.55,0.9,6.7,"13:08:48",1
"22/02/28","13:20",0.0,15.1,38.7,1016.4,220.1,2.5,4.2,239.2,0.55,1.2,6.8,"13:11:28",1
"22/02/28","13:30",0.0,15.4,35.8,1016.6,251.5,2.2,5.7,242.9,0.54,0.4,6.9,"13:29:36",1
"22/02/28","13:40",0.0,14.8,36.1,1016.4,230.6,3.5,5.7,221.6,0.53,0.0,7.1,"13:38:00",1
"22/02/28","13:50",0.0,15.5,35.1,1016.6,246.4,2.1,4.8,224.3,0.52,0.2,7.2,"13:49:28",1
"22/02/28","14:00",0.0,15.2,35.0,1016.4,261.3,2.5,5.4,243.9,0.51,-0.1,7.2,"13:50:48",1
"22/02/28","14:10",0.0,15.1,33.9,1016.4,250.8,2.6,4.7,302.7,0.49,-0.6,7.3,"14:08:00",1
"22/02/28","14:20",0.0,15.0,33.9,1015.9,235.3,2.8,5.7,231.1,0.46,-0.7,7.4,"14:16:32",1
"22/02/28","14:30",0.0,15.4,31.7,1015.4,223.3,2.2,4.7,246.2,0.45,-1.3,7.6,"14:20:16",1
"22/02/28","14:40",0.0,15.4,32.2,1015.6,202.5,3.0,4.4,188.4,0.43,-1.1,7.7,"14:35:36",1
"22/02/28","14:50",0.0,14.7,31.5,1015.4,203.2,4.0,7.0,194.9,0.41,-2.0,7.8,"14:47:12",1
"22/02/28","15:00",0.0,15.3,31.9,1015.4,189.8,3.2,6.0,210.8,0.39,-1.3,8.0,"14:54:40",1
"22/02/28","15:10",0.0,15.0,30.7,1015.4,207.6,3.6,6.3,212.9,0.38,-2.1,8.1,"15:08:32",1
"22/02/28","15:20",0.0,15.2,30.0,1015.4,185.9,2.7,6.0,147.5,0.35,-2.2,8.1,"15:18:56",1
"22/02/28","15:30",0.0,15.1,29.9,1014.7,188.6,2.8,6.3,176.5,0.33,-2.3,8.3,"15:25:12",1
"22/02/28","15:40",0.0,15.2,30.6,1015.2,191.4,2.7,4.5,178.4,0.30,-1.9,8.3,"15:30:40",1
"22/02/28","15:50",0.0,15.1,29.9,1015.2,176.2,3.0,5.0,149.9,0.28,-2.3,8.5,"15:44:48",1
"22/02/28","16:00",0.0,15.1,29.8,1015.2,194.1,2.6,5.0,187.7,0.25,-2.4,8.3,"15:54:40",1
"22/02/28","16:10",0.0,15.2,29.1,1014.9,173.2,2.2,3.4,182.1,0.22,-2.6,8.3,"16:09:12",1
"22/02/28","16:20",0.0,15.0,28.7,1015.2,198.0,2.3,4.8,233.9,0.19,-3.0,8.6,"16:17:52",1
"22/02/28","16:30",0.0,14.8,28.4,1015.2,192.1,2.6,5.5,188.4,0.16,-3.3,8.9,"16:25:52",1
"22/02/28","16:40",0.0,14.8,27.7,1014.9,184.3,2.3,3.9,145.7,0.14,-3.6,8.8,"16:30:48",1
"22/02/28","16:50",0.0,14.6,28.3,1015.4,192.5,2.7,4.7,193.2,0.11,-3.5,8.6,"16:48:16",1
"22/02/28","17:00",0.0,14.6,27.7,1015.4,193.9,1.8,3.5,184.4,0.09,-3.8,8.9,"16:56:56",1
"22/02/28","17:10",0.0,14.2,28.2,1015.4,164.4,2.2,4.1,160.6,0.06,-3.9,8.9,"17:06:56",1
"22/02/28","17:20",0.0,14.1,28.8,1015.4,199.6,2.0,3.6,228.1,0.04,-3.7,8.9,"17:15:52",1
"22/02/28","17:30",0.0,13.6,28.2,1015.4,189.5,2.6,4.1,194.0,0.03,-4.4,8.9,"17:20:40",1
"22/02/28","17:40",0.0,13.2,29.7,1015.6,187.4,1.8,4.0,169.1,0.01,-4.1,8.8,"17:36:56",1
"22/02/28","17:50",0.0,12.8,31.0,1015.4,199.1,1.7,3.2,186.2,0.01,-3.9,8.7,"17:45:36",1
"22/02/28","18:00",0.0,12.4,31.9,1015.6,178.9,1.5,2.8,207.7,0.00,-3.8,8.7,"17:56:20",1
"22/02/28","18:10",0.0,12.0,32.8,1016.1,186.5,1.3,2.7,196.6,0.00,-3.8,8.8,"18:05:44",1
"22/02/28","18:20",0.0,11.6,34.2,1015.9,252.9,1.3,2.2,205.1,0.00,-3.6,8.7,"18:10:42",1
"22/02/28","18:30",0.0,11.4,41.0,1015.9,211.4,1.1,2.2,201.8,0.00,-1.3,8.7,"18:25:14",1
"22/02/28","18:40",0.0,11.0,48.4,1016.4,88.8,0.8,1.6,126.2,0.00,0.6,8.8,"18:37:26",1
"22/02/28","18:50",0.0,10.4,51.6,1016.1,337.0,0.7,1.8,273.5,0.00,0.9,8.8,"18:48:42",1
"22/02/28","19:00",0.0,10.1,56.6,1016.6,117.5,1.0,2.1,121.0,0.00,1.9,8.7,"18:58:32",1
"22/02/28","19:10",0.0,9.7,59.4,1016.4,160.9,1.0,2.2,116.2,0.00,2.2,8.7,"19:00:48",1
"22/02/28","19:20",0.0,8.8,56.3,1016.6,297.0,1.7,2.4,292.1,0.00,0.6,8.6,"19:15:52",1
"22/02/28","19:30",0.0,7.9,58.1,1017.1,320.9,2.3,3.6,321.7,0.00,0.2,8.4,"19:23:52",1
"22/02/28","19:40",0.0,7.2,60.1,1016.8,314.2,2.5,3.5,316.5,0.00,0.0,8.4,"19:30:02",1
"22/02/28","19:50",0.0,6.9,61.4,1016.8,311.2,2.5,4.3,313.4,0.00,0.0,8.5,"19:41:52",1
"22/02/28","20:00",0.0,6.7,62.9,1017.3,285.8,2.2,3.4,319.7,0.00,0.2,8.4,"19:52:16",1
"22/02/28","20:10",0.0,6.5,63.8,1017.1,299.7,2.3,3.7,319.8,0.00,0.2,8.5,"20:08:32",1
"22/02/28","20:20",0.0,6.2,64.7,1017.1,296.4,2.0,2.8,312.0,0.00,0.1,8.4,"20:18:16",1
"22/02/28","20:30",0.0,6.1,65.9,1016.8,278.5,2.2,3.1,336.9,0.00,0.3,8.3,"20:21:28",1
"22/02/28","20:40",0.0,6.0,66.6,1017.1,302.1,2.1,3.2,317.4,0.00,0.3,8.2,"20:36:08",1
"22/02/28","20:50",0.0,5.7,67.5,1016.8,312.8,1.8,3.5,325.6,0.00,0.2,8.2,"20:42:32",1
"22/02/28","21:00",0.0,5.7,68.6,1017.1,282.9,2.0,3.1,304.6,0.00,0.4,8.2,"20:50:08",1
"22/02/28","21:10",0.0,5.6,69.4,1016.8,306.5,2.1,3.7,320.6,0.00,0.5,8.2,"21:04:34",1
"22/02/28","21:20",0.0,4.9,70.3,1016.8,297.4,1.8,2.6,317.9,0.00,0.0,7.9,"21:11:28",1
"22/02/28","21:30",0.0,5.1,71.5,1016.8,284.2,1.8,2.4,286.7,0.00,0.4,8.1,"21:20:02",1
"22/02/28","21:40",0.0,5.4,72.3,1016.8,299.8,2.8,5.0,311.5,0.00,0.9,8.0,"21:33:12",1
"22/02/28","21:50",0.0,5.3,72.8,1016.4,285.7,2.1,3.3,336.9,0.00,0.9,7.9,"21:48:08",1
"22/02/28","22:00",0.0,4.6,73.3,1016.4,317.8,2.1,3.3,334.6,0.00,0.3,7.8,"21:51:36",1
"22/02/28","22:10",0.0,4.3,74.3,1016.1,307.5,1.8,2.6,323.7,0.00,0.2,7.7,"22:06:40",1
"22/02/28","22:20",0.0,4.1,75.1,1015.9,319.9,1.7,2.4,344.6,0.00,0.1,7.7,"22:15:28",1
"22/02/28","22:30",0.0,3.4,76.1,1015.9,302.0,1.6,1.9,313.8,0.00,-0.4,7.9,"22:25:12",1
"22/02/28","22:40",0.0,3.8,77.5,1015.9,307.5,2.5,3.2,320.7,0.00,0.3,7.7,"22:38:08",1
"22/02/28","22:50",0.0,4.2,78.1,1015.9,287.4,2.1,2.8,305.1,0.00,0.8,7.8,"22:40:24",1
"22/02/28","23:00",0.0,4.2,78.6,1015.6,300.5,2.5,3.2,319.5,0.00,0.9,7.5,"22:57:20",1
"22/02/28","23:10",0.0,4.0,79.1,1015.6,303.7,2.1,3.4,327.1,0.00,0.8,7.4,"23:02:08",1
"22/02/28","23:20",0.0,4.0,79.9,1015.9,296.9,2.3,4.5,317.9,0.00,0.9,7.3,"23:18:00",1
"22/02/28","23:30",0.0,4.1,80.5,1015.6,289.5,2.3,3.2,313.2,0.00,1.1,7.5,"23:29:36",1
"22/02/28","23:40",0.0,4.1,81.0,1015.9,292.5,2.3,3.2,307.4,0.00,1.2,7.1,"23:32:00",1
"22/02/28","23:50",0.0,4.1,81.7,1015.9,303.7,2.6,4.3,302.7,0.00,1.3,7.4,"23:48:56",1
"22/02/28","24:00",0.0,4.2,82.0,1016.1,285.3,2.5,3.1,288.5,0.00,1.4,7.3,"23:55:28",1
